Weather Service Report


727 
ASUS45 KBOU 232110
RWRCO 

WEATHER ROUNDUP FOR COLORADO
NATIONAL WEATHER SERVICE DENVER/BOULDER CO
200 PM MST SUN FEB 23 2020

NOTE: "FAIR" INDICATES FEW OR NO CLOUDS BELOW 12000 FEET WITH NO
SIGNIFICANT WEATHER AND/OR OBSTRUCTIONS TO VISIBILITY.

COZ001>005-013-030-031-232200-
...NORTHWEST COLORADO...
  
CITY           SKY/WX    TMP DP  RH WIND       PRES   REMARKS
CRAIG          CLOUDY    33  25  72 W7        30.01F WCI  27          
HAYDEN         CLOUDY    32  26  78 W7        30.02S WCI  26          
MEEKER         CLOUDY    35  29  78 SW8       30.00S WCI  29          
RANGELY        FAIR      36  29  78 CALM      30.03F                  
RABBIT EARS PA LGT SNOW  25  23  93 CALM      29.97S VSB 3/4          
STEAMBOAT SPGS CLOUDY    32  30  94 SW8       29.96S WCI  25          
WALDEN         NOT AVBL                                               
$$

COZ006>008-011-232200-
...WEST CENTRAL VALLEYS...
  
CITY           SKY/WX    TMP DP  RH WIND       PRES   REMARKS
GRAND JUNCTION CLOUDY    47  30  51 NW9       29.99F                  
MONTROSE       CLOUDY    43  32  65 NW13      30.00S                  
EAGLE          CLOUDY    39  31  72 NE5       29.98S                  
RIFLE          CLOUDY    41  32  70 CALM      29.99F                  
DELTA          NOT AVBL                                               
NUCLA          PTSUNNY   45  30  57 NW7       30.02F                  
$$

COZ017>023-064>068-232200-
...SOUTHWEST COLORADO...
  
CITY           SKY/WX    TMP DP  RH WIND       PRES   REMARKS
DURANGO        PTSUNNY   41  33  73 SW14G25   29.94F                  
CORTEZ         FAIR      41  36  82 W12       30.00F                  
PAGOSA SPRINGS PTSUNNY   37  31  79 SW10      29.94F                  
TELLURIDE      MIX PCPN  32  23  69 W12       29.99S WCI  23          
WOLF CREEK PAS SNOW      18  18 100 W9        29.99S VSB 1/4 WCI   6  
$$

COZ009-010-012-014-032>034-037-058>063-232200-
...CENTRAL COLORADO...
  
CITY           SKY/WX    TMP DP  RH WIND       PRES   REMARKS
ASPEN          LGT SNOW  32  27  81 N8        29.95S WCI  25          
BUENA VISTA    CLOUDY    34  29  84 E6        29.92F HAZE    WCI  29  
COPPER MTN     MIX PCPN  25  21  86 NW8       29.95S VSB 3/4 WCI  16  
BERTHOUD PASS  CLOUDY    12   1  62 SE16G25   29.95F WCI  -4          
DAKOTA HILL    CLOUDY    19  18  93 SE5       29.97F WCI  13          
COTTONWOOD PAS LGT SNOW  30  30 100 CALM      29.93F VSB 1            
GUNNISON       CLOUDY    36  25  64 VRB5      29.94F                  
GRANBY         CLOUDY    30  25  79 NW12      29.95S WCI  21          
KREMMLING      LGT RAIN  30  25  80 CALM      29.98S                  
LEADVILLE      LGT SNOW  28  23  81 N8        29.91F VSB 1   WCI  20  
MONARCH PASS   SNOW      19  18  93 W15       30.03F VSB 1/4 WCI   5  
SALIDA         CLOUDY    35  33  92 SW7       29.99F WCI  29          
SUNLIGHT       NOT AVBL                                               
WILKERSON PASS LGT SNOW  19  18  93 NE13      29.96S VSB 1   WCI   7  
$$

COZ069>075-232200-
...SAN LUIS VALLEY/SANGRE DE CRISTO MOUNTAINS...
  
CITY           SKY/WX    TMP DP  RH WIND       PRES   REMARKS
ALAMOSA        SNOW      35  28  75 N25G36    29.89R VSB 1/2 WCI  23  
DEL NORTE      PTSUNNY   34  28  80 S6        29.90F WCI  28          
LA VETA PASS   SNOW      25  23  93 NE3       29.89F VSB 1/4          
SAGUACHE       PTSUNNY   37  30  75 SE8       29.89F                  
$$

COZ035-036-038>040-232200-
...NORTHERN COLORADO FRONT RANGE...
  
CITY           SKY/WX    TMP DP  RH WIND       PRES   REMARKS
DENVER INTL AP PTSUNNY   40  28  62 NW17      29.97F                  
AURORA         PTSUNNY   38  30  72 N12       29.98F                  
FRONT RANGE AP NOT AVBL                                               
ERIE MUNI ARPT CLOUDY    41  32  70 N7        30.04F                  
BOULDER MUN AP CLOUDY    39  32  75 N5        29.97F                  
CENTENNIAL     PTSUNNY   38  31  76 N9        29.97F                  
BROOMFIELD     CLOUDY    41  32  70 NW13      29.98F                  
FORT COLLINS   PTSUNNY   42  25  50 W5        29.99F                  
LONGMONT       CLOUDY    43  33  67 NW9       29.99F                  
$$

COZ041-046-047-076>085-087-088-232200-
...PIKES PEAK/PALMER DIVIDE AND SOUTHERN FOOTHILLS...
  
CITY           SKY/WX    TMP DP  RH WIND       PRES   REMARKS
COLO. SPRINGS  CLOUDY    39  25  57 N24G31    29.93F                  
A. F. ACADEMY  FLURRIES  34  28  80 N16       29.93F WCI  24          
SCHRIEVER AFB  NOT AVBL                                               
CHEYENNE MTN   PTSUNNY   35  27  73 N17       29.87S WCI  25          
ELLICOTT       CLOUDY    39  24  55 N30       29.92S                  
FALCON         CLOUDY    35  24  64 N22G29    29.94S WCI  23          
FORT CARSON    NOT AVBL                                               
LIMON          CLOUDY    44  18  35 NE14G26   29.94S                  
MONUMENT HILL  CLOUDY    30  28  93 NW14      29.98S WCI  20          
CANON CITY     PTSUNNY   37  37 100 SW14      29.91S                  
WALSENBURG     NOT AVBL                                               
TRINIDAD       FAIR      47  26  44 N18G31    29.85S                  
$$

COZ042>045-048>051-090-091-232200-
...NORTHEAST COLORADO...
  
CITY           SKY/WX    TMP DP  RH WIND       PRES   REMARKS
GREELEY ARPT   CLOUDY    45  27  49 VRB7      29.98F                  
AKRON          CLOUDY    50  15  24 NE9       29.93S                  
BURLINGTON     CLOUDY    51  18  27 NE14G24   29.86S                  
WRAY           CLOUDY    54  14  20 E16G29    29.91R                  
YUMA           CLOUDY    50  12  22 NE13G18   29.91S                  
STERLING       FAIR      54  19  26 E9G17     29.93F                  
HOLYOKE        FAIR      54  18  24 E13       29.92F                  
FORT MORGAN    FAIR      54  12  18 SW10      29.95F                  
$$

COZ086-089-092>099-232200-
...SOUTHEAST COLORADO...
  
CITY           SKY/WX    TMP DP  RH WIND       PRES   REMARKS
PUEBLO         CLOUDY    49  25  39 N20G30    29.89F                  
LA JUNTA       CLOUDY    49  35  58 N28G36    29.82F                  
LAMAR          LGT RAIN  46  39  76 NE13      29.81R                  
SPRINGFIELD      N/A     52  37  56 N15G24    29.75F                  
$$
  

Return to Home page


Western Regional Climate Center, wrcc@dri.edu